Spriggs Payne Airport

Jump to: basic info | weather | frequencies | runways | comments

Related pages: nearby airports | nearby navaids | notams | map

Basic information (top)

Codes: MLW GLMR
Location: lon 6.289060, lat -10.758700, elev 25 ft / 8 m msl
Status: medium_airport
Scheduled airline service: yes
Links: Wikipedia Mobile

Weather (top)

Current conditions for Roberts International Airport 24nm (44km) E (rec'd 2014/12/20 15:00Z):

GLRB 201500Z 18007KT 9999 BKN022 31/23 Q1010 NOSIG

Airport forecast for Roberts International Airport 24nm (44km) E (rec'd 2014/12/20 12:21Z):

TAF TAF GLRB 201000Z 2012/2118 24010KT 9999 SCT016 
      TEMPO 2013/2017 20008KT 9000 BKN020 
      BECMG 2018/2020 23006KT 9999 
      TEMPO 2021/2102 00000KT 9000 SCT014 FEW023CB

Frequencies (top)

Verify before use: may be inaccurate or out of date.

APP: 124.5 MHz (ROBERTS APP)
TWR: 118.7 MHz (SPRIGGS TWR)

Runways (top)

05/23: 6,000 x 100 ft (1,829 x 30 m) — paved — lighted — threshold 05 displaced 200 ft (61 m) — threshold 23 displaced 200 ft (61 m)

Latest comments (top)

No comments yet for Spriggs Payne Airport

More... (top)

See also NOTAMs and nearby airports and navaids, or visit the Spriggs Payne Airport page at the main OurAirports website..